Content
SEND FEEDBACK

Daily
Averages
Monthly
Summary
United Kingdom

LONDON, ENGLAND


Home > Europe > United Kingdom > England
Elevation: 203 feet     Latitude: 51 09N     Longitude: 000 11W

WEATHER
 
SELECT A DAY
Number of Records: 292,650;   Date Range: 7/1/96 - 7/22/14
 
SHARE

PRINT THIS DATA

[ ← Previous Day ]
WEATHER ALMANAC - OCTOBER 29, 2013
[ Next Day → ]
[ °C ]   °F
Weather ElementAverageHighLow
Temperature47.7 °F55.4 °F (12:50 pm)41 °F (10:50 pm)
Dewpoint41.4 °F44.6 °F (9:50 am)37.4 °F (5:20 pm)
Humidity79.5 %93 % (4:20 am)58 % (1:50 pm)
Barometer29.87 in30.09 in (11:50 pm)29.62 in (12:50 am)
Wind Speed8.5 mph16.1 mph (1:20 pm)
Weather ElementAverage
Visibility6.2 mi
Wind DirectionWSW (232.1 °)

Weather ElementTotal
Precipitation---
Heating Degree Days16.8 (Base 65)
Averaged from 47 records on October 29, 2013
WEATHER CONDITIONS BREAKOUT
WIND DIRECTION BREAKOUT
WEATHER BY HOUR - OCTOBER 29, 2013
[ °C ]   °F
Local TimeTemperatureDewpointHumidityBarometerVisibilityWind DirectionWind SpeedGust SpeedPrecipitationEventsConditions
12:50 AM48.2 °F42.8 °F82 %29.62 inSW (230°)9.2 mphClear
1:20 AM48.2 °F42.8 °F82 %29.65 inWSW (250°)12.7 mphClear
1:50 AM46.4 °F42.8 °F87 %29.65 inWSW (240°)10.4 mphClear
2:20 AM46.4 °F42.8 °F87 %29.68 inWSW (240°)8.1 mphClear
2:50 AM46.4 °F42.8 °F87 %29.68 inSW (230°)9.2 mphClear
3:20 AM46.4 °F42.8 °F87 %29.68 inSW (230°)8.1 mphClear
3:50 AM46.4 °F42.8 °F87 %29.71 inSW (230°)6.9 mphClear
4:20 AM44.6 °F42.8 °F93 %29.71 inSW (230°)6.9 mphClear
4:50 AM44.6 °F42.8 °F93 %29.71 inSW (230°)5.8 mphClear
5:20 AM44.6 °F42.8 °F93 %29.74 inSSW (210°)5.8 mphClear
5:50 AM44.6 °F42.8 °F93 %29.74 inSW (220°)4.6 mphClear
6:20 AM44.6 °F42.8 °F93 %29.74 inSSW (210°)5.8 mphClear
6:50 AM44.6 °F41.0 °F87 %29.77 inSW (220°)5.8 mphClear
7:20 AM44.6 °F41.0 °F87 %29.80 inSW (220°)6.9 mphClear
7:50 AM46.4 °F42.8 °F87 %29.80 inSW (230°)6.9 mphClear
8:20 AM46.4 °F42.8 °F87 %29.80 inSW (230°)9.2 mphClear
8:50 AM48.2 °F42.8 °F82 %29.83 inSW (230°)9.2 mphClear
9:20 AM50.0 °F42.8 °F76 %29.83 in6.2 miSW (230°)10.4 mphPartly Cloudy
9:50 AM51.8 °F44.6 °F76 %29.83 in6.2 miWSW (250°)8.1 mphPartly Cloudy
10:20 AM51.8 °F44.6 °F76 %29.86 in6.2 miWSW (250°)9.2 mphScattered Clouds
10:50 AM51.8 °F44.6 °F76 %29.86 in6.2 miWSW (250°)12.7 mphScattered Clouds
11:20 AM51.8 °F44.6 °F76 %29.89 in6.2 miWest (260°)12.7 mphMostly Cloudy
11:50 AM53.6 °F42.8 °F67 %29.89 in6.2 miWest (280°)12.7 mphMostly Cloudy
12:20 PM53.6 °F42.8 °F67 %29.89 in6.2 miWest (270°)13.8 mphMostly Cloudy
12:50 PM55.4 °F42.8 °F63 %29.89 in6.2 miWest (280°)13.8 mphMostly Cloudy
1:20 PM55.4 °F42.8 °F63 %29.89 in6.2 miWest (270°)16.1 mphMostly Cloudy
1:50 PM55.4 °F41.0 °F58 %29.89 in6.2 miWNW (290°)15.0 mphMostly Cloudy
2:20 PM53.6 °F39.2 °F58 %29.92 in6.2 miWNW (290°)15.0 mphPartly Cloudy
2:50 PM53.6 °F39.2 °F58 %29.92 in6.2 miWest (280°)11.5 mphPartly Cloudy
3:20 PM53.6 °F41.0 °F62 %29.92 in6.2 miWest (260°)13.8 mphPartly Cloudy
3:50 PM51.8 °F39.2 °F62 %29.95 in6.2 miWSW (250°)11.5 mphPartly Cloudy
4:20 PM50.0 °F39.2 °F66 %29.95 inWest (260°)10.4 mphClear
4:50 PM48.2 °F39.2 °F71 %29.95 in6.2 miWSW (250°)8.1 mphPartly Cloudy
5:20 PM46.4 °F37.4 °F71 %29.98 inWSW (250°)4.6 mphClear
5:50 PM46.4 °F39.2 °F76 %29.98 inWSW (240°)5.8 mphClear
6:20 PM46.4 °F39.2 °F76 %29.98 inSW (230°)5.8 mphClear
6:50 PM44.6 °F39.2 °F81 %30.01 in6.2 miSW (220°)5.8 mphPartly Cloudy
7:20 PM44.6 °F39.2 °F81 %30.01 inSW (220°)6.9 mphClear
7:50 PM46.4 °F41.0 °F81 %30.01 inWSW (240°)8.1 mphClear
8:20 PM44.6 °F39.2 °F81 %30.04 inWSW (250°)8.1 mphClear
8:50 PM44.6 °F41.0 °F87 %30.04 inWSW (240°)5.8 mphClear
9:20 PM44.6 °F39.2 °F81 %30.04 inSW (230°)5.8 mphClear
9:50 PM42.8 °F39.2 °F87 %30.06 inSW (220°)5.8 mphClear
10:20 PM42.8 °F39.2 °F87 %30.06 inSW (230°)4.6 mphClear
10:50 PM41.0 °F39.2 °F93 %30.06 inVariable2.3 mphClear
11:20 PM41.0 °F39.2 °F93 %30.06 inWSW (240°)3.5 mphClear
11:50 PM41.0 °F39.2 °F93 %30.09 inVariable2.3 mphClear
Hourly data recorded from EGKK, located miles away from London, England







STORIES FROM OUR PARTNERS